Vertical_Velocity
1 -2 1 3 -6 -5 -1 3 -2 -0 3 1 -6 -1 -1 -1 -3 -4 2 -3 -1 -1 -4 -0 -5 -3 -2 1 -1 0 1 1 4 -2 -3 -1 -1 -2
5 8 2 -5 -3 0 -3 -5 0 1 1 3 -3 -5 -2 -5 -3 1 -3 0 -0 -3 -6 -3 -4 -1 -2 -3 -4 -2 -5 -1 7 -2 -2 1 -2 -3
-2 5 2 2 1 -0 -1 2 0 -0 2 -4 -3 1 2 -1 -2 0 -3 -1 1 -1 5 1 -2 -3 0 0 -2 1 2 1 -2 1 -2 1 -0 0
-4 2 -3 -1 0 -2 -0 -2 1 0 -0 3 0 -2 1 1 -3 9 -4 6 0 0 -9 -3 -11 -8 -8 5 -1 -0 0 0 1 -1 4 -2 -2 -3
2 1 4 -4 -7 -1 3 -2 -7 -1 1 -3 -2 -0 -5 -0 3 -2 -2 -9 2 -2 -0 4 11 4 -5 -2 2 -1 1 -0 2 4 1 -2 -0 -2
-2 -0 -0 -0 -3 -7 3 3 0 -2 -3 -2 1 -4 -3 1 -2 -0 -3 1 2 0 3 -2 0 2 -3 2 1 -0 -1 0 5 1 -1 3 -0 -1
4 2 1 1 -0 -3 1 1 -4 7 -3 -2 -5 2 -3 -2 2 0 -1 -8 1 -5 -0 1 2 -3 1 0 -0 2 -2 0 0 1 1 1 1 2
3 -1 3 -2 3 8 -3 0 -1 2 -9 -1 -1 -0 -0 -4 -3 -1 0 2 -5 1 5 1 -2 1 1 1 -0 -0 0 0 -1 0 2 1 1 2
2 -2 2 6 -2 4 -2 3 2 -6 6 -3 -1 -2 4 2 -10 1 -3 -8 0 -6 2 1 -2 0 -0 -1 0 -0 -3 -0 -1 -1 1 1 0 2
2 5 -3 -3 -0 10 -5 -2 3 -2 -6 -7 1 2 3 -5 -5 5 -5 -2 -2 -0 1 -1 0 -0 -1 2 1 -4 -3 -0 -1 -1 -1 -0 1 1
-0 1 0 2 0 1 3 -7 -1 -3 -4 0 -2 4 -11 3 3 6 7 9 2 -1 -1 2 -1 -1 -0 -1 -1 -2 0 1 -1 -1 -0 -1 -1 0
-8 5 9 -1 7 -8 -1 -3 -3 -2 2 7 -12 -4 -0 -6 -8 -9 -1 -3 1 0 0 2 -3 -2 -0 0 0 -1 -1 -2 -2 -1 -1 -0 -1 -1
0 3 -5 2 4 -4 2 -5 -5 -5 2 -1 -3 7 1 -1 3 2 -2 -3 3 1 -1 0 -1 -2 -1 -1 -2 0 0 -1 -0 0 -3 -3 -1 -0
2 -4 -4 -3 4 -0 5 0 -3 2 -1 4 -6 4 -0 4 0 -2 -2 -0 1 1 -1 1 1 1 -0 -1 0 -0 -1 -1 1 1 -1 -1 -1 -1
2 -4 1 -3 5 -2 1 -0 -2 -3 5 -2 -1 -0 2 -2 -5 0 0 1 -0 -0 0 -2 1 -2 -2 -0 -0 -1 -2 -2 -1 -0 0 1 0 -1
-4 4 -2 1 1 -2 -6 6 -3 5 0 -1 0 1 -2 -4 -1 1 1 2 1 -0 -1 -2 -0 -0 -1 -0 -1 -1 -2 -1 -1 -0 0 -0 0 0
0 1 0 -4 -1 -0 2 -1 2 3 0 0 3 -3 -3 2 2 1 -0 0 1 -2 -1 -0 -1 -1 -1 -1 -1 -1 0 -1 -1 -1 -1 0 0 -0
-6 1 1 -2 2 4 -2 1 3 -0 2 2 -1 -1 1 2 2 1 -0 -0 -0 -1 -1 -1 -1 -1 0 -0 -0 -0 1 -1 -0 -1 -0 -0 0 -0
-1 -1 -1 -4 0 2 2 1 -0 5 0 -1 -0 2 3 2 2 1 -2 -1 -1 -1 -1 -1 -1 -1 1 1 2 1 -3 -3 -2 -2 -0 -0 1 -1
-1 -3 0 1 0 1 0 -1 -0 1 -2 2 4 4 3 1 1 1 -1 -1 -1 -1 -0 -2 -2 -2 -0 2 -3 3 -3 -1 -1 -0 -1 -0 -1 -1
7 -4 0 0 1 0 -0 -1 -0 -0 -0 2 5 1 2 2 1 1 -0 -1 -2 -1 -1 -1 -1 -0 0 -2 1 -2 1 -1 -2 -2 -1 -0 -2 -0
6 -1 3 0 0 0 -2 -2 1 -2 1 1 5 3 3 2 1 -0 0 -0 -0 -1 -0 -1 0 -1 0 -1 -0 -1 -1 3 -3 -4 -1 -0 0 -0
7 1 4 6 2 1 -1 -1 2 -0 3 -0 3 3 -2 -0 1 -1 -1 1 -0 -1 1 -1 -1 -1 -0 -1 -2 -1 -2 -1 -0 0 0 -3 -1 0
Height
3093 3095 3097 3098 3098 3100 3102 3102 3101 3101 3100 3100 3097 3098 3096 3093 3092 3089 3087 3085 3082 3080 3078 3076 3076 3075 3075 3074 3073 3072 3072 3071 3071 3072 3074 3074 3076 3079
3089 3090 3092 3093 3093 3095 3095 3095 3095 3094 3092 3092 3091 3091 3088 3086 3085 3084 3081 3079 3077 3074 3071 3070 3069 3068 3068 3066 3066 3066 3065 3065 3065 3065 3067 3068 3070 3072
3084 3086 3087 3087 3087 3088 3089 3089 3088 3088 3086 3084 3082 3082 3081 3079 3077 3076 3074 3073 3070 3068 3066 3064 3062 3062 3061 3061 3060 3059 3059 3059 3059 3060 3060 3063 3064 3067
3079 3080 3081 3081 3082 3082 3081 3081 3082 3080 3079 3077 3075 3075 3073 3071 3071 3068 3067 3066 3063 3061 3059 3057 3057 3055 3055 3055 3052 3052 3052 3053 3054 3055 3056 3058 3060 3062
3071 3072 3073 3074 3075 3075 3074 3073 3073 3072 3071 3070 3068 3068 3066 3063 3062 3060 3059 3058 3055 3052 3052 3050 3048 3047 3048 3048 3048 3047 3047 3049 3050 3052 3053 3054 3056 3058
3063 3065 3066 3066 3067 3067 3066 3064 3064 3064 3064 3063 3061 3060 3058 3057 3055 3053 3052 3050 3048 3044 3042 3042 3042 3042 3041 3042 3043 3043 3043 3045 3045 3048 3050 3052 3053 3055
3054 3055 3057 3057 3057 3057 3058 3058 3058 3056 3056 3055 3054 3052 3051 3049 3047 3043 3042 3041 3041 3040 3037 3035 3036 3036 3037 3038 3038 3040 3040 3042 3043 3045 3047 3048 3051 3053
3045 3046 3047 3048 3049 3048 3049 3050 3050 3048 3048 3048 3045 3045 3043 3039 3038 3037 3034 3033 3034 3034 3032 3030 3030 3031 3033 3034 3035 3036 3038 3039 3040 3041 3043 3045 3047 3049
3034 3035 3036 3038 3039 3040 3042 3041 3041 3041 3041 3041 3037 3036 3034 3033 3029 3030 3028 3027 3027 3027 3027 3026 3026 3027 3029 3031 3032 3032 3034 3036 3036 3038 3039 3041 3043 3045
3024 3027 3028 3031 3032 3033 3032 3034 3034 3032 3032 3033 3030 3026 3026 3027 3023 3022 3021 3021 3022 3022 3022 3023 3023 3024 3025 3026 3028 3029 3031 3032 3033 3033 3035 3036 3038 3040
3015 3019 3020 3024 3024 3023 3026 3025 3026 3024 3023 3022 3021 3020 3017 3019 3019 3018 3021 3020 3016 3018 3018 3020 3020 3021 3022 3023 3024 3025 3026 3027 3028 3029 3030 3032 3034 3036
3008 3011 3011 3014 3014 3015 3017 3017 3016 3018 3016 3014 3013 3013 3011 3013 3011 3015 3015 3016 3015 3015 3015 3017 3017 3018 3019 3020 3021 3022 3023 3024 3025 3026 3027 3028 3029 3031
2998 3001 3004 3004 3006 3007 3008 3010 3009 3012 3008 3008 3008 3006 3006 3006 3007 3009 3011 3013 3013 3012 3012 3013 3014 3015 3016 3017 3018 3019 3020 3021 3022 3022 3023 3025 3026 3027
2988 2991 2994 2997 2997 2999 3001 3002 3002 3001 3002 3000 3001 3001 2999 3000 3003 3005 3006 3008 3008 3008 3008 3009 3010 3011 3012 3013 3014 3015 3016 3016 3017 3018 3019 3020 3021 3022
2980 2981 2985 2988 2989 2989 2992 2993 2994 2995 2994 2993 2995 2994 2995 2997 2999 3000 3002 3003 3003 3004 3004 3005 3006 3008 3008 3009 3010 3010 3010 3010 3010 3011 3012 3013 3014 3015
2970 2972 2973 2976 2979 2981 2984 2985 2986 2987 2985 2986 2987 2988 2989 2991 2993 2995 2996 2997 2998 2999 3000 3001 3002 3003 3004 3004 3004 3003 3003 3003 3003 3004 3005 3007 3008 3009
2958 2960 2961 2965 2970 2972 2974 2976 2976 2977 2977 2978 2980 2981 2983 2985 2988 2989 2990 2991 2993 2994 2995 2996 2998 2998 2998 2997 2997 2996 2996 2996 2997 2998 2999 3000 3001 3002
2945 2948 2950 2955 2959 2961 2963 2965 2965 2966 2968 2969 2972 2974 2977 2979 2981 2982 2984 2986 2987 2989 2990 2991 2991 2990 2990 2991 2990 2990 2990 2990 2991 2992 2993 2994 2994 2994
2932 2936 2940 2944 2947 2950 2952 2954 2955 2956 2957 2959 2963 2966 2969 2972 2974 2976 2977 2979 2981 2982 2984 2984 2984 2984 2984 2984 2984 2983 2984 2984 2985 2985 2986 2986 2987 2986
2921 2926 2930 2933 2936 2938 2940 2942 2944 2946 2948 2951 2954 2958 2961 2964 2967 2969 2971 2973 2974 2975 2977 2977 2977 2977 2978 2978 2977 2977 2976 2977 2978 2978 2978 2979 2978 2978
2912 2918 2920 2923 2925 2928 2930 2931 2933 2937 2940 2942 2946 2950 2954 2957 2959 2962 2964 2965 2967 2969 2969 2969 2970 2970 2971 2971 2971 2970 2970 2969 2970 2970 2969 2970 2969 2969
2903 2908 2911 2912 2915 2918 2920 2922 2924 2927 2931 2934 2938 2942 2946 2949 2952 2955 2957 2958 2960 2960 2960 2961 2962 2963 2963 2964 2963 2962 2962 2962 2960 2960 2960 2960 2960 2960
2895 2899 2902 2905 2908 2909 2911 2913 2916 2920 2923 2926 2929 2934 2938 2942 2944 2947 2949 2951 2952 2952 2953 2954 2954 2955 2955 2955 2955 2954 2953 2952 2952 2952 2952 2950 2950 2950